Location: Newark
(41.6500°N, 71.4833°W)
Time: 14:37:31
(UTC+00:00)

A-11 Canister half - Pass Details

Date: 24 January 2020
Orbit: 1517 x 1683 km, 47.2° (Epoch: 26 February)

Event Time Altitude Azimuth Distance (km) Brightness Sun altitude
Rises 13:22:03 0° 285° (WNW) 4,675 11.0 11.3°
Reaches altitude 10° 13:27:46 10° 257° (WSW) 3,710 10.7 12.1°
Maximum altitude 13:30:51 12° 238° (WSW) 3,563 10.8 12.6°
Drops below altitude 10° 13:33:58 10° 218° (SW) 3,740 11.1 13.0°
Sets 13:39:52 0° 190° (S) 4,758 12.1 13.8°
